This demonstration page uses our WeatherBlox Daily Observations layout. Learn more.

Left ArrowRight Arrow

36.19886, -115.1175

Hourly Observations for December 16, 2020

Temp ( °F °C ) Dew Point ( °F °C ) Humidity (%) Winds ( mph kmh ) Pressure ( in mb ) Visibility ( mi km ) Precip ( " mm )
12:53 am 00:53 Clear 43 6.1 13 -10.6 29 29 NW 6 9 30.29 1026 10 16.0934 0 0
1:53 am 01:53 Clear 42 5.6 13 -10.6 30 30 NNW 7 11 30.28 1026 10 16.0934 0 0
2:53 am 02:53 Clear 39 3.9 13 -10.6 34 34 W 6 9 30.29 1026 10 16.0934 0 0
3:53 am 03:53 Clear 38 3.3 13 -10.6 36 36 WNW 8 13 30.29 1026 10 16.0934 0 0
4:53 am 04:53 Clear 40 4.4 13 -10.6 33 33 N 5 7 30.28 1026 10 16.0934 0 0
5:53 am 05:53 Clear 38 3.3 15 -9.4 39 39 W 3 6 30.29 1026 10 16.0934 0 0
6:53 am 06:53 Sunny 37 2.8 16 -8.9 42 42 W 3 6 30.31 1027 10 16.0934 0 0
7:53 am 07:53 Sunny 41 5 15 -9.4 35 35 WNW 3 6 30.32 1027 10 16.0934 0 0
8:53 am 08:53 Sunny 47 8.3 14 -10 26 26 N 6 9 30.33 1027 10 16.0934 0 0
9:53 am 09:53 Sunny 48 8.9 14 -10 25 25 E 6 9 30.32 1027 10 16.0934 0 0
10:53 am 10:53 Sunny 50 10 14 -10 24 24 Calm 30.3 1026 10 16.0934 0 0
11:53 am 11:53 Sunny 53 11.7 15 -9.4 22 22 Calm 30.25 1024 10 16.0934 0 0
12:53 pm 12:53 Sunny 55 12.8 15 -9.4 20 20 Calm 30.22 1023 10 16.0934 0 0
1:53 pm 13:53 Sunny 56 13.3 16 -8.9 21 21 Calm 30.19 1022 10 16.0934 0 0
2:53 pm 14:53 Sunny 57 13.9 17 -8.3 21 21 Calm 30.18 1022 10 16.0934 0 0
3:53 pm 15:53 Sunny 56 13.3 17 -8.3 22 22 Calm 30.18 1022 10 16.0934 0 0
4:53 pm 16:53 Clear 53 11.7 16 -8.9 23 23 E 3 6 30.17 1022 10 16.0934 0 0
5:53 pm 17:53 Clear 52 11.1 18 -7.8 26 26 Calm 30.16 1022 10 16.0934 0 0
6:53 pm 18:53 Clear 48 8.9 18 -7.8 30 30 WNW 5 7 30.17 1022 10 16.0934 0 0
7:53 pm 19:53 Clear 47 8.3 20 -6.7 34 34 W 5 7 30.16 1021 10 16.0934 0 0
8:53 pm 20:53 Clear 45 7.2 20 -6.7 37 37 WNW 6 9 30.16 1022 10 16.0934 0 0
9:53 pm 21:53 Clear 43 6.1 20 -6.7 40 40 NW 6 9 30.16 1021 10 16.0934 0 0
10:53 pm 22:53 Clear 44 6.7 21 -6.1 40 40 Calm 30.14 1021 10 16.0934 0 0
11:53 pm 23:53 Clear 40 4.4 19 -7.2 43 43 WNW 3 6 30.12 1020 10 16.0934 0 0

Powered by AerisWeather